Location: Borgo
(42.3939°N, 9.2791°E)
Time: 13:30:19
(UTC+00:00)

ISS - Pass Details

Date: 30 April 2021
Orbit: 417 x 422 km, 51.6° (Epoch: 15 May)

Event Time Altitude Azimuth Distance (km) Brightness Sun altitude
Exits shadow 02:17:04 61° 141° (SE) 482 -3.6 -19.8°
Drops below altitude 10° 02:20:24 10° 62° (ENE) 1,506 0.2 -19.4°
Sets 02:22:31 0° 58° (ENE) 2,374 1.6 -19.1°
